| time (UTC) | temp F | wind direction | speed MPH | gust MPH | rain 1hr in | rain 24hr in | rain mn in | humidity % | barometer mb |
| 20260504044527 | 52 | 27 | 0.0 | 2.0 | 0.00 | 0.00 | 0.00 | 62 | 999.1 |
| 20260504043020 | 55 | 330 | 0.0 | 3.0 | 0.00 | 0.00 | 0.00 | 57 | 998.6 |
| 20260504041514 | 61 | 278 | 0.0 | 2.0 | 0.00 | 0.00 | 0.00 | 35 | 996.8 |
| 20260504040015 | 60 | 277 | 0.0 | 1.0 | 0.00 | 0.00 | 0.00 | 37 | 996.6 |
| 20260504034512 | 59 | 272 | 0.0 | 1.0 | 0.00 | 0.00 | 0.00 | 38 | 996.4 |
| 20260504033042 | 59 | 258 | 0.0 | 0.0 | 0.00 | 0.00 | 0.00 | 38 | 996.4 |
| 20260504031544 | 56 | 252 | 0.0 | 0.0 | 0.00 | 0.00 | 0.00 | 43 | 996.5 |
| 20260504030038 | 55 | 242 | 0.0 | 0.0 | 0.00 | 0.00 | 0.00 | 45 | 996.5 |
| 20260504024535 | 55 | 241 | 0.0 | 0.0 | 0.00 | 0.00 | 0.00 | 45 | 996.8 |
| 20260504023035 | 55 | 229 | 0.0 | 0.0 | 0.00 | 0.00 | 0.00 | 44 | 996.9 |
| 20260504021531 | 56 | 252 | 0.0 | 0.0 | 0.00 | 0.00 | 0.00 | 41 | 997.1 |
| 20260504020057 | 62 | 241 | 0.0 | 0.0 | 0.00 | 0.00 | 0.00 | 35 | 997.3 |
| 20260504014604 | 66 | 271 | 0.0 | 0.0 | 0.00 | 0.00 | 0.00 | 30 | 997.5 |
| 20260504013055 | 67 | 291 | 0.0 | 0.0 | 0.00 | 0.00 | 0.00 | 31 | 997.8 |
| 20260504011551 | 68 | 293 | 0.0 | 0.0 | 0.00 | 0.00 | 0.00 | 31 | 997.8 |
| 20260504010049 | 70 | 283 | 0.0 | 4.0 | 0.00 | 0.00 | 0.00 | 30 | 997.9 |
| 20260504004548 | 71 | 264 | 0.0 | 5.0 | 0.00 | 0.00 | 0.00 | 29 | 998.1 |
| 20260504003051 | 70 | 272 | 0.0 | 7.0 | 0.00 | 0.00 | 0.00 | 30 | 998.3 |
| 20260504001540 | 72 | 273 | 0.0 | 3.0 | 0.00 | 0.00 | 0.00 | 28 | 998.6 |
| 20260504000051 | 72 | 281 | 0.0 | 9.0 | 0.00 | 0.00 | 0.00 | 26 | 999.1 |
| 20260503234527 | 73 | 276 | 0.0 | 4.0 | 0.00 | 0.00 | 0.00 | 28 | 999.4 |
| 20260503231523 | 71 | 290 | 0.0 | 3.0 | 0.00 | 0.00 | 0.00 | 28 | 999.9 |
| 20260503230022 | 72 | 274 | 0.0 | 2.0 | 0.00 | 0.00 | 0.00 | 28 | 1000.1 |
| 20260503224519 | 71 | 279 | 0.0 | 3.0 | 0.00 | 0.00 | 0.00 | 29 | 1000.6 |
| 20260503221516 | 71 | 254 | 0.0 | 8.0 | 0.00 | 0.00 | 0.00 | 28 | 1001.1 |
| 20260503220014 | 72 | 274 | 0.0 | 12.0 | 0.00 | 0.00 | 0.00 | 26 | 1001.5 |
| 20260503214513 | 72 | 274 | 0.0 | 4.0 | 0.00 | 0.00 | 0.00 | 25 | 1001.8 |
| 20260503211516 | 72 | 294 | 0.0 | 17.0 | 0.00 | 0.00 | 0.00 | 27 | 1002.5 |
| 20260503210011 | 72 | 270 | 0.0 | 5.0 | 0.00 | 0.00 | 0.00 | 26 | 1002.9 |
| 20260503204509 | 72 | 268 | 0.0 | 4.0 | 0.00 | 0.00 | 0.00 | 25 | 1003.0 |
| 20260503203015 | 72 | 300 | 0.0 | 2.0 | 0.00 | 0.00 | 0.00 | 27 | 1003.6 |
| 20260503201501 | 71 | 278 | 0.0 | 7.0 | 0.00 | 0.00 | 0.00 | 27 | 1003.9 |
| 20260503200100 | 71 | 262 | 0.0 | 6.0 | 0.00 | 0.00 | 0.00 | 27 | 1004.2 |
| 20260503194600 | 71 | 287 | 0.0 | 2.0 | 0.00 | 0.00 | 0.00 | 27 | 1004.7 |
| 20260503193056 | 70 | 247 | 0.0 | 3.0 | 0.00 | 0.00 | 0.00 | 29 | 1004.9 |
| 20260503191522 | 70 | 314 | 0.0 | 7.0 | 0.00 | 0.00 | 0.00 | 28 | 1005.2 |
| 20260503190018 | 70 | 261 | 0.0 | 6.0 | 0.00 | 0.00 | 0.00 | 30 | 1005.5 |
| 20260503184511 | 69 | 282 | 0.0 | 2.0 | 0.00 | 0.00 | 0.00 | 29 | 1006.0 |
| 20260503183010 | 69 | 288 | 0.0 | 4.0 | 0.00 | 0.00 | 0.00 | 31 | 1006.4 |
| 20260503181506 | 69 | 281 | 0.0 | 7.0 | 0.00 | 0.00 | 0.00 | 29 | 1006.9 |
| 20260503180003 | 68 | 236 | 0.0 | 9.0 | 0.00 | 0.00 | 0.00 | 29 | 1007.3 |
| 20260503174557 | 67 | 278 | 0.0 | 2.0 | 0.00 | 0.00 | 0.00 | 31 | 1007.8 |
| 20260503173058 | 67 | 322 | 0.0 | 5.0 | 0.00 | 0.00 | 0.00 | 29 | 1008.1 |
| 20260503171549 | 67 | 254 | 0.0 | 7.0 | 0.00 | 0.00 | 0.00 | 31 | 1008.4 |
| 20260503081518 | 34 | 159 | 0.0 | 0.0 | 0.00 | 0.00 | 0.00 | 71 | 1012.0 |
| 20260503071558 | 41 | 13 | 0.0 | 0.0 | 0.00 | 0.00 | 0.00 | 62 | 1012.1 |